TimeEST,TemperatureF,Dew PointF,Humidity,Sea Level PressureIn,VisibilityMPH,Wind Direction,Wind SpeedMPH,Gust SpeedMPH,PrecipitationIn,Events,Conditions,WindDirDegrees,DateUTC
12:55 AM,63.0,62.4,98,30.14,10.0,Calm,Calm,-,N/A,,Clear,0,2012-11-14 05:55:00
1:55 AM,61.5,61.2,99,30.12,10.0,ENE,4.6,-,N/A,,Clear,60,2012-11-14 06:55:00
2:55 AM,61.7,61.5,99,30.12,10.0,ENE,4.6,-,N/A,,Clear,60,2012-11-14 07:55:00
3:36 AM,62.6,62.6,100,30.12,2.5,Calm,Calm,-,N/A,,Clear,0,2012-11-14 08:36:00
3:37 AM,62.6,62.6,100,30.12,2.0,Calm,Calm,-,N/A,,Clear,0,2012-11-14 08:37:00
3:38 AM,62.6,62.6,100,30.12,1.8,Calm,Calm,-,N/A,,Clear,0,2012-11-14 08:38:00
3:42 AM,62.6,62.6,100,30.12,1.5,Calm,Calm,-,N/A,,Clear,0,2012-11-14 08:42:00
3:43 AM,62.6,62.6,100,30.12,1.5,Calm,Calm,-,N/A,,Clear,0,2012-11-14 08:43:00
3:45 AM,62.6,62.6,100,30.12,2.0,Calm,Calm,-,N/A,,Clear,0,2012-11-14 08:45:00
3:47 AM,62.6,62.6,100,30.12,3.0,Calm,Calm,-,N/A,,Clear,0,2012-11-14 08:47:00
3:55 AM,62.2,61.9,99,30.13,10.0,Calm,Calm,-,N/A,,Clear,0,2012-11-14 08:55:00
4:55 AM,60.4,60.1,99,30.13,10.0,NNE,3.5,-,N/A,,Clear,30,2012-11-14 09:55:00
5:16 AM,60.8,59.0,94,30.13,4.0,NE,4.6,-,N/A,,Clear,40,2012-11-14 10:16:00
5:24 AM,59.0,59.0,100,30.13,8.0,NE,4.6,-,N/A,,Clear,50,2012-11-14 10:24:00
5:55 AM,60.6,60.4,99,30.14,9.0,ENE,5.8,-,N/A,,Clear,60,2012-11-14 10:55:00
6:01 AM,60.8,60.8,100,30.14,8.0,NE,4.6,-,N/A,,Partly Cloudy,50,2012-11-14 11:01:00
6:40 AM,60.8,60.8,100,30.15,4.0,ENE,8.1,-,N/A,,Scattered Clouds,70,2012-11-14 11:40:00
6:55 AM,61.5,61.5,100,30.16,9.0,ENE,9.2,-,N/A,,Mostly Cloudy,70,2012-11-14 11:55:00
6:58 AM,62.6,62.6,100,30.16,10.0,ENE,9.2,-,N/A,,Mostly Cloudy,60,2012-11-14 11:58:00
7:51 AM,64.4,64.4,100,30.17,8.0,ENE,11.5,-,N/A,,Overcast,70,2012-11-14 12:51:00
7:55 AM,64.6,64.6,100,30.17,8.0,ENE,12.7,-,N/A,,Overcast,70,2012-11-14 12:55:00
8:20 AM,64.4,64.4,100,30.18,10.0,ENE,9.2,-,N/A,,Overcast,60,2012-11-14 13:20:00
8:55 AM,65.1,65.1,100,30.19,8.0,ENE,9.2,-,N/A,,Overcast,60,2012-11-14 13:55:00
9:17 AM,66.2,66.2,100,30.19,9.0,ENE,11.5,-,N/A,,Overcast,60,2012-11-14 14:17:00
9:43 AM,66.2,66.2,100,30.19,10.0,ENE,10.4,-,N/A,,Overcast,70,2012-11-14 14:43:00
9:55 AM,67.8,67.8,100,30.20,10.0,ENE,10.4,-,N/A,,Overcast,60,2012-11-14 14:55:00
10:06 AM,68.0,68.0,100,30.20,10.0,NE,11.5,-,N/A,,Overcast,50,2012-11-14 15:06:00
10:42 AM,69.8,69.8,100,30.20,10.0,ENE,8.1,-,N/A,,Overcast,70,2012-11-14 15:42:00
10:55 AM,69.4,69.4,100,30.20,10.0,East,10.4,-,N/A,,Overcast,80,2012-11-14 15:55:00
11:15 AM,69.8,69.8,100,30.20,10.0,East,11.5,-,N/A,,Overcast,80,2012-11-14 16:15:00
11:46 AM,71.6,69.8,94,30.19,10.0,ENE,11.5,-,N/A,,Overcast,70,2012-11-14 16:46:00
11:55 AM,71.4,69.1,92,30.18,10.0,East,11.5,-,N/A,,Overcast,80,2012-11-14 16:55:00
12:41 PM,73.4,68.0,83,30.16,10.0,ENE,8.1,-,N/A,,Overcast,60,2012-11-14 17:41:00
12:55 PM,73.6,68.2,83,30.16,10.0,East,10.4,-,N/A,,Overcast,90,2012-11-14 17:55:00
1:55 PM,75.0,67.6,78,30.14,10.0,ENE,8.1,-,N/A,,Overcast,60,2012-11-14 18:55:00
2:12 PM,75.2,68.0,78,30.14,10.0,East,6.9,-,N/A,,Scattered Clouds,100,2012-11-14 19:12:00
2:55 PM,76.8,67.6,73,30.13,10.0,East,8.1,-,N/A,,Partly Cloudy,80,2012-11-14 19:55:00
3:55 PM,78.4,67.5,69,30.12,10.0,ENE,9.2,-,N/A,,Clear,70,2012-11-14 20:55:00
4:55 PM,74.1,66.6,77,30.11,10.0,ENE,9.2,-,N/A,,Clear,60,2012-11-14 21:55:00
5:55 PM,71.2,64.6,79,30.12,10.0,Calm,Calm,-,N/A,,Clear,0,2012-11-14 22:55:00
6:55 PM,68.4,64.4,87,30.13,10.0,NNE,5.8,-,N/A,,Clear,30,2012-11-14 23:55:00
7:55 PM,67.3,64.4,90,30.14,10.0,NE,5.8,-,N/A,,Clear,50,2012-11-15 00:55:00
8:55 PM,65.8,64.0,94,30.17,10.0,ENE,5.8,-,N/A,,Clear,60,2012-11-15 01:55:00
9:50 PM,66.2,64.4,94,30.17,10.0,ENE,13.8,-,N/A,,Mostly Cloudy,60,2012-11-15 02:50:00
9:55 PM,65.8,65.3,98,30.17,10.0,ENE,15.0,-,N/A,,Mostly Cloudy,70,2012-11-15 02:55:00
10:27 PM,66.2,64.4,94,30.16,10.0,ENE,9.2,-,N/A,,Scattered Clouds,70,2012-11-15 03:27:00
10:55 PM,64.4,64.0,99,30.16,10.0,ENE,6.9,-,N/A,,Clear,60,2012-11-15 03:55:00
11:41 PM,64.4,64.4,100,30.14,10.0,ENE,9.2,-,N/A,,Mostly Cloudy,70,2012-11-15 04:41:00
11:55 PM,64.4,64.4,100,30.14,10.0,ENE,9.2,-,N/A,,Overcast,60,2012-11-15 04:55:00